Location: Ferintosh
(52.7647°N, 112.9692°W)
Time: 14:29:01
(UTC+00:00)

SR - Visible Passes

Search period start: 19 May 2024 00:00
Search period end: 29 May 2024 00:00
Orbit: 579 x 860 km, 66.7° (Epoch: 18 May)

Date Brightness Start Highest point End Pass type
(mag) Time Alt. Az. Time Alt. Az. Time Alt. Az.
19 May ? 04:58:24 10° WNW 05:02:09 21° NNW 05:05:43 10° NNE visible
19 May ? 06:43:07 10° NNW 06:45:41 14° N 06:48:09 10° NE visible
19 May ? 08:25:34 10° NNW 08:29:10 23° NNE 08:32:37 10° E visible
19 May ? 10:07:14 10° NW 10:11:41 84° NE 10:15:55 10° SE visible
20 May ? 05:49:59 10° NW 05:52:45 15° N 05:55:24 10° NNE visible
20 May ? 07:33:18 10° NNW 07:36:22 17° NNE 07:39:19 10° ENE visible
20 May ? 09:15:01 10° NNW 09:19:18 46° NE 09:23:25 10° ESE visible
21 May ? 04:56:35 10° WNW 04:59:51 18° NNW 05:03:00 10° NNE visible
21 May ? 06:40:50 10° NNW 06:43:28 15° N 06:46:01 10° NE visible
21 May ? 08:22:50 10° NNW 08:26:46 29° NNE 08:30:32 10° E visible
21 May ? 10:04:36 10° NW 10:08:56 61° SW 10:13:06 10° SSE visible
22 May ? 05:48:00 10° NW 05:50:31 14° N 05:52:59 10° NNE visible
22 May ? 07:30:38 10° NNW 07:34:04 21° NNE 07:37:21 10° ENE visible
22 May ? 09:12:17 10° NW 09:16:42 70° NE 09:20:55 10° SE visible
23 May ? 04:54:45 10° NW 04:57:35 16° NNW 05:00:20 10° NNE visible
23 May ? 06:38:20 10° NNW 06:41:13 16° NNE 06:44:00 10° NE visible
23 May ? 08:20:04 10° NNW 08:24:16 40° NE 08:28:17 10° ESE visible
23 May ? 10:02:04 10° NW 10:06:05 37° WSW 10:09:59 10° S visible
24 May ? 05:45:46 10° NNW 05:48:17 14° N 05:50:44 10° NE visible
24 May ? 07:27:53 10° NNW 07:31:40 26° NNE 07:35:16 10° E visible
24 May ? 09:09:35 10° NW 09:13:58 75° SW 09:18:11 10° SSE visible
25 May ? 04:52:47 10° NW 04:55:20 14° N 04:57:48 10° NNE visible
25 May ? 06:35:40 10° NNW 06:38:54 19° NNE 06:42:01 10° ENE visible
25 May ? 08:17:19 10° NW 08:21:40 59° NE 08:25:51 10° SE visible
25 May ? 09:59:43 10° WNW 10:03:08 23° WSW 10:06:29 10° SSW visible
26 May ? 05:43:18 10° NNW 05:46:01 15° NNE 05:48:39 10° NE visible
26 May ? 07:25:06 10° NNW 07:29:10 34° NE 07:33:05 10° ESE visible
26 May ? 09:06:59 10° NW 09:11:08 46° WSW 09:14:37 13° SSE visible
27 May ? 04:50:37 10° NNW 04:53:04 14° N 04:55:27 10° NE visible
27 May ? 06:32:55 10° NNW 06:36:30 23° NNE 06:39:58 10° E visible
27 May ? 08:14:33 10° NW 08:18:56 90° NNW 08:22:43 13° SE visible
27 May ? 09:57:48 10° WNW 10:00:04 14° WSW 10:01:53 11° SW visible
28 May ? 05:40:39 10° NNW 05:43:41 18° NNE 05:46:39 10° ENE visible
28 May ? 07:22:17 10° NNW 07:26:34 49° NE 07:30:41 10° ESE visible
28 May ? 09:04:29 10° WNW 09:08:11 28° WSW 09:10:09 19° SSW visible
